CSN395 ZGGG-WMKP

Flight info

Callsign CSN395
Flight time 3h 21m
Altitude 32000
Route VIBOS9 VIBOS R473 SIERA DCT MULET DCT ALLEY V32 EPDOS L642 EPKAL/K0863F320 L642 CN M765 BITOD/N0461F320 M765 VKB W546 BETNU BETNU1F
Aircraft A321/M-SDE3FGHIRWY/LB1

Departure

Time 2026-04-27 08:59
Airport Guangzhou Baiyun International Airport (ZGGG)

Arrival

Time 2026-04-27 12:21
Airport Penang International Airport (WMKP)
Time Latitude Longitude Altitude Speed Heading
2026-04-27 08:37 23.40213 113.30643 58 ft 0 kts 194°
2026-04-27 08:50 23.40215 113.30643 58 ft 1 kts 194°
2026-04-27 08:51 23.40232 113.30647 40 ft 3 kts 182°
2026-04-27 08:51 23.40251 113.30646 52 ft 3 kts 159°
2026-04-27 08:51 23.40266 113.30636 54 ft 2 kts 122°
2026-04-27 08:51 23.40271 113.30627 53 ft 0 kts 104°
2026-04-27 08:54 23.40271 113.30628 58 ft 1 kts 104°
2026-04-27 08:54 23.40263 113.30663 58 ft 10 kts 104°
2026-04-27 08:55 23.40244 113.30745 54 ft 12 kts 104°
2026-04-27 08:55 23.40223 113.30830 58 ft 12 kts 107°
2026-04-27 08:55 23.40200 113.30916 54 ft 12 kts 104°
2026-04-27 08:55 23.40183 113.31002 58 ft 10 kts 89°
2026-04-27 08:56 23.40231 113.31051 55 ft 10 kts 20°
2026-04-27 08:56 23.40321 113.31076 57 ft 17 kts 14°
2026-04-27 08:56 23.40438 113.31107 52 ft 17 kts 13°
2026-04-27 08:56 23.40556 113.31140 54 ft 17 kts 14°
2026-04-27 08:57 23.40793 113.31204 53 ft 18 kts 14°
2026-04-27 08:57 23.40886 113.31229 55 ft 12 kts 15°
2026-04-27 08:57 23.40913 113.31301 58 ft 12 kts 102°
2026-04-27 08:58 23.40894 113.31389 53 ft 12 kts 105°
2026-04-27 08:58 23.40828 113.31413 52 ft 11 kts 195°
2026-04-27 08:58 23.40764 113.31397 50 ft 9 kts 195°
2026-04-27 08:58 23.40594 113.31351 53 ft 57 kts 194°
2026-04-27 08:59 23.39967 113.31181 55 ft 126 kts 194°
2026-04-27 08:59 23.38924 113.30901 59 ft 180 kts 194°
2026-04-27 08:59 23.37616 113.30559 426 ft 199 kts 192°
2026-04-27 08:59 23.36257 113.30196 1131 ft 201 kts 193°
2026-04-27 09:00 23.34896 113.29826 1888 ft 202 kts 193°
2026-04-27 09:00 23.33480 113.29437 2057 ft 220 kts 192°
2026-04-27 09:00 23.31949 113.29025 2407 ft 230 kts 192°
2026-04-27 09:00 23.30379 113.28602 2854 ft 234 kts 191°
2026-04-27 09:01 23.28756 113.28452 3342 ft 235 kts 180°
2026-04-27 09:01 23.27110 113.28436 3892 ft 238 kts 179°
2026-04-27 09:01 23.25452 113.28424 4516 ft 240 kts 179°
2026-04-27 09:01 23.23787 113.28411 4833 ft 256 kts 180°
2026-04-27 09:02 23.21979 113.28395 5306 ft 263 kts 180°
2026-04-27 09:02 23.20133 113.28378 5917 ft 266 kts 181°
2026-04-27 09:02 23.18279 113.28229 6505 ft 269 kts 192°
2026-04-27 09:02 23.16443 113.27774 7081 ft 271 kts 193°
2026-04-27 09:03 23.14592 113.27319 7655 ft 274 kts 193°
2026-04-27 09:03 23.12721 113.26863 8218 ft 277 kts 193°
2026-04-27 09:03 23.10836 113.26403 8797 ft 279 kts 193°
2026-04-27 09:03 23.09138 113.25989 9311 ft 281 kts 193°
2026-04-27 09:04 23.07222 113.25527 9867 ft 283 kts 193°
2026-04-27 09:04 23.05266 113.25055 10170 ft 296 kts 194°
2026-04-27 09:04 23.03202 113.24553 10290 ft 313 kts 194°
2026-04-27 09:04 23.00998 113.24113 10412 ft 331 kts 186°
2026-04-27 09:05 22.98637 113.24118 10549 ft 349 kts 175°
2026-04-27 09:05 22.96221 113.24629 10902 ft 357 kts 169°
2026-04-27 09:05 22.94751 113.25011 11178 ft 359 kts 168°
2026-04-27 09:05 22.92320 113.25644 11671 ft 361 kts 169°
2026-04-27 09:06 22.89854 113.26238 12171 ft 364 kts 169°
2026-04-27 09:06 22.87371 113.26819 12666 ft 366 kts 170°
2026-04-27 09:06 22.84868 113.27401 13155 ft 369 kts 170°
2026-04-27 09:06 22.82354 113.27986 13635 ft 372 kts 170°
2026-04-27 09:07 22.79810 113.28587 14054 ft 375 kts 169°
2026-04-27 09:07 22.77260 113.29199 14469 ft 378 kts 169°
2026-04-27 09:07 22.74678 113.29822 14887 ft 380 kts 170°
2026-04-27 09:07 22.72083 113.30449 15297 ft 383 kts 170°
2026-04-27 09:08 22.69467 113.31081 15714 ft 386 kts 170°
2026-04-27 09:08 22.66837 113.31718 16135 ft 389 kts 170°
2026-04-27 09:08 22.64187 113.32357 16554 ft 392 kts 170°
2026-04-27 09:08 22.61532 113.33083 16954 ft 396 kts 165°
2026-04-27 09:09 22.58896 113.33993 17355 ft 399 kts 165°
2026-04-27 09:09 22.56240 113.34912 17771 ft 402 kts 165°
2026-04-27 09:09 22.53570 113.35837 18174 ft 404 kts 165°
2026-04-27 09:09 22.50883 113.36769 18534 ft 407 kts 165°
2026-04-27 09:10 22.48174 113.37708 18892 ft 410 kts 165°
2026-04-27 09:10 22.45449 113.38651 19243 ft 413 kts 165°
2026-04-27 09:10 22.42706 113.39597 19591 ft 415 kts 165°
2026-04-27 09:10 22.39948 113.40546 19949 ft 417 kts 166°
2026-04-27 09:11 22.37170 113.41499 20287 ft 420 kts 166°
2026-04-27 09:11 22.34381 113.42457 20615 ft 422 kts 166°
2026-04-27 09:11 22.31577 113.43419 20936 ft 425 kts 166°
2026-04-27 09:11 22.28750 113.44392 21257 ft 427 kts 166°
2026-04-27 09:12 22.25912 113.45372 21566 ft 429 kts 166°
2026-04-27 09:12 22.23065 113.46354 21880 ft 431 kts 166°
2026-04-27 09:12 22.20203 113.47349 22183 ft 433 kts 165°
2026-04-27 09:12 22.18306 113.48028 22387 ft 435 kts 165°
2026-04-27 09:13 22.15429 113.49082 22698 ft 437 kts 165°
2026-04-27 09:13 22.12551 113.50154 22996 ft 439 kts 165°
2026-04-27 09:13 22.08681 113.51601 23395 ft 442 kts 165°
2026-04-27 09:13 22.06758 113.52315 23568 ft 443 kts 165°
2026-04-27 09:14 22.03835 113.53393 23828 ft 444 kts 165°
2026-04-27 09:14 22.00904 113.54466 24083 ft 445 kts 165°
2026-04-27 09:14 21.98011 113.55682 24328 ft 451 kts 158°
2026-04-27 09:14 21.95239 113.57314 24576 ft 454 kts 154°
2026-04-27 09:15 21.92491 113.58996 24824 ft 456 kts 154°
2026-04-27 09:15 21.89727 113.60687 25067 ft 457 kts 154°
2026-04-27 09:15 21.86960 113.62379 25311 ft 459 kts 154°
2026-04-27 09:15 21.84175 113.64081 25552 ft 460 kts 154°
2026-04-27 09:16 21.81386 113.65785 25782 ft 462 kts 155°
2026-04-27 09:16 21.78581 113.67495 26013 ft 464 kts 155°
2026-04-27 09:16 21.75769 113.69204 26237 ft 465 kts 155°
2026-04-27 09:16 21.72939 113.70921 26455 ft 467 kts 155°
2026-04-27 09:17 21.70111 113.72639 26662 ft 469 kts 155°
2026-04-27 09:17 21.67267 113.74368 26876 ft 471 kts 155°
2026-04-27 09:17 21.64413 113.76104 27070 ft 472 kts 155°
2026-04-27 09:17 21.61506 113.77745 27279 ft 470 kts 161°
2026-04-27 09:18 21.58436 113.78900 27474 ft 466 kts 170°
2026-04-27 09:18 21.55218 113.79529 27673 ft 462 kts 179°
2026-04-27 09:18 21.52060 113.79629 27873 ft 459 kts 186°
2026-04-27 09:18 21.48853 113.79548 28068 ft 461 kts 186°
2026-04-27 09:19 21.45638 113.79469 28279 ft 463 kts 186°
2026-04-27 09:19 21.42416 113.79392 28477 ft 465 kts 186°
2026-04-27 09:19 21.39188 113.79318 28779 ft 464 kts 186°
2026-04-27 09:19 21.35956 113.79247 29108 ft 463 kts 186°
2026-04-27 09:20 21.32744 113.79175 29430 ft 462 kts 186°
2026-04-27 09:20 21.29530 113.79099 29750 ft 461 kts 186°
2026-04-27 09:20 21.26335 113.79020 30056 ft 460 kts 186°
2026-04-27 09:20 21.23135 113.78942 30307 ft 459 kts 186°
2026-04-27 09:21 21.19944 113.78864 30561 ft 458 kts 187°
2026-04-27 09:21 21.12813 113.78697 31116 ft 457 kts 187°
2026-04-27 09:21 21.09632 113.78625 31367 ft 456 kts 187°
2026-04-27 09:22 21.06466 113.78485 31590 ft 454 kts 189°
2026-04-27 09:22 21.03329 113.78211 31811 ft 452 kts 191°
2026-04-27 09:22 21.00209 113.77842 31893 ft 450 kts 193°
2026-04-27 09:23 20.94030 113.77007 31907 ft 446 kts 193°
2026-04-27 09:23 20.87860 113.76241 31905 ft 446 kts 192°
2026-04-27 09:24 20.82728 113.75674 31910 ft 446 kts 192°
2026-04-27 09:24 20.76568 113.75007 31911 ft 445 kts 192°
2026-04-27 09:25 20.70408 113.74323 31905 ft 445 kts 192°
2026-04-27 09:25 20.64248 113.73632 31907 ft 445 kts 192°
2026-04-27 09:26 20.58101 113.72948 31907 ft 445 kts 192°
2026-04-27 09:26 20.51946 113.72268 31909 ft 444 kts 192°
2026-04-27 09:27 20.45794 113.71580 31905 ft 444 kts 192°
2026-04-27 09:27 20.39649 113.70890 31904 ft 444 kts 192°
2026-04-27 09:28 20.33505 113.70212 31903 ft 444 kts 192°
2026-04-27 09:28 20.27360 113.69525 31901 ft 444 kts 192°
2026-04-27 09:29 20.21217 113.68842 31897 ft 444 kts 192°
2026-04-27 09:29 20.15074 113.68161 31897 ft 444 kts 192°
2026-04-27 09:30 20.08889 113.67484 31899 ft 444 kts 192°
2026-04-27 09:30 20.02751 113.66804 31892 ft 444 kts 192°
2026-04-27 09:31 19.96610 113.66119 31895 ft 444 kts 192°
2026-04-27 09:31 19.90469 113.65433 31892 ft 444 kts 192°
2026-04-27 09:32 19.84314 113.64757 31891 ft 444 kts 192°
2026-04-27 09:32 19.78164 113.64085 31891 ft 445 kts 192°
2026-04-27 09:33 19.72003 113.63408 31889 ft 445 kts 192°
2026-04-27 09:33 19.65843 113.62723 31885 ft 445 kts 192°
2026-04-27 09:34 19.59682 113.62038 31884 ft 446 kts 192°
2026-04-27 09:34 19.53507 113.61355 31882 ft 446 kts 192°
2026-04-27 09:35 19.47328 113.60683 31884 ft 447 kts 192°
2026-04-27 09:35 19.41138 113.60006 31886 ft 447 kts 192°
2026-04-27 09:36 19.34948 113.59331 31881 ft 447 kts 192°
2026-04-27 09:36 19.28755 113.58654 31882 ft 448 kts 192°
2026-04-27 09:37 19.22558 113.57965 31880 ft 448 kts 192°
2026-04-27 09:37 19.16353 113.57283 31881 ft 449 kts 192°
2026-04-27 09:38 19.10136 113.56608 31883 ft 449 kts 192°
2026-04-27 09:38 19.03912 113.55925 31892 ft 450 kts 192°
2026-04-27 09:39 18.97695 113.55229 31884 ft 449 kts 193°
2026-04-27 09:39 18.91501 113.54361 31885 ft 448 kts 195°
2026-04-27 09:40 18.85328 113.53416 31890 ft 448 kts 194°
2026-04-27 09:40 18.79140 113.52503 31881 ft 449 kts 194°
2026-04-27 09:41 18.72945 113.51621 31880 ft 450 kts 194°
2026-04-27 09:41 18.66735 113.50745 31882 ft 450 kts 194°
2026-04-27 09:42 18.60525 113.49860 31881 ft 450 kts 194°
2026-04-27 09:42 18.54650 113.48009 31873 ft 435 kts 212°
2026-04-27 09:43 18.49674 113.44544 31874 ft 428 kts 221°
2026-04-27 09:43 18.44869 113.40831 31872 ft 429 kts 221°
2026-04-27 09:44 18.40051 113.37124 31872 ft 430 kts 221°
2026-04-27 09:44 18.35224 113.33401 31875 ft 430 kts 221°
2026-04-27 09:45 18.30387 113.29679 31873 ft 431 kts 221°
2026-04-27 09:45 18.25546 113.25958 31874 ft 431 kts 221°
2026-04-27 09:46 18.20703 113.22232 31878 ft 432 kts 221°
2026-04-27 09:46 18.15849 113.18500 31874 ft 432 kts 221°
2026-04-27 09:47 18.10994 113.14769 31881 ft 433 kts 221°
2026-04-27 09:47 18.06123 113.11033 31880 ft 433 kts 221°
2026-04-27 09:48 18.01250 113.07303 31878 ft 434 kts 221°
2026-04-27 09:48 17.96368 113.03568 31877 ft 434 kts 221°
2026-04-27 09:49 17.91482 112.99828 31872 ft 435 kts 221°
2026-04-27 09:49 17.86623 112.96107 31871 ft 435 kts 221°
2026-04-27 09:50 17.81720 112.92307 31870 ft 435 kts 221°
2026-04-27 09:50 17.76880 112.88478 31870 ft 436 kts 222°
2026-04-27 09:51 17.72039 112.84647 31874 ft 436 kts 222°
2026-04-27 09:51 17.67175 112.80826 31874 ft 437 kts 221°
2026-04-27 09:52 17.62306 112.77014 31870 ft 437 kts 221°
2026-04-27 09:52 17.57435 112.73190 31878 ft 437 kts 221°
2026-04-27 09:53 17.52566 112.69367 31875 ft 438 kts 221°
2026-04-27 09:53 17.47683 112.65544 31881 ft 438 kts 221°
2026-04-27 09:54 17.42800 112.61726 31879 ft 438 kts 221°
2026-04-27 09:54 17.37921 112.57911 31873 ft 438 kts 221°
2026-04-27 09:55 17.33030 112.54085 31876 ft 439 kts 221°
2026-04-27 09:55 17.25687 112.48341 31882 ft 440 kts 221°
2026-04-27 09:56 17.20777 112.44519 31872 ft 440 kts 221°
2026-04-27 09:56 17.15861 112.40690 31873 ft 441 kts 220°
2026-04-27 09:57 17.10940 112.36854 31873 ft 441 kts 220°
2026-04-27 09:57 17.06017 112.33021 31872 ft 442 kts 220°
2026-04-27 09:58 17.01081 112.29185 31871 ft 442 kts 220°
2026-04-27 09:58 16.96129 112.25354 31873 ft 443 kts 220°
2026-04-27 09:59 16.91136 112.21576 31869 ft 444 kts 219°
2026-04-27 09:59 16.86123 112.17810 31870 ft 444 kts 219°
2026-04-27 10:00 16.81115 112.14024 31866 ft 445 kts 219°
2026-04-27 10:00 16.76108 112.10224 31871 ft 445 kts 219°
2026-04-27 10:01 16.71087 112.06424 31872 ft 446 kts 219°
2026-04-27 10:01 16.66072 112.02629 31873 ft 446 kts 219°
2026-04-27 10:02 16.61042 111.98822 31877 ft 446 kts 219°
2026-04-27 10:02 16.56867 111.95671 31872 ft 447 kts 219°
2026-04-27 10:03 16.51821 111.91876 31879 ft 447 kts 219°
2026-04-27 10:03 16.46792 111.88082 31886 ft 447 kts 219°
2026-04-27 10:04 16.41751 111.84279 31884 ft 447 kts 219°
2026-04-27 10:04 16.36714 111.80489 31884 ft 447 kts 219°
2026-04-27 10:05 16.31667 111.76688 31884 ft 447 kts 219°
2026-04-27 10:05 16.26627 111.72890 31883 ft 448 kts 219°
2026-04-27 10:06 16.21575 111.69096 31882 ft 448 kts 218°
2026-04-27 10:06 16.16520 111.65295 31884 ft 448 kts 218°
2026-04-27 10:07 16.11465 111.61503 31882 ft 448 kts 218°
2026-04-27 10:07 16.06408 111.57707 31882 ft 448 kts 218°
2026-04-27 10:08 16.01351 111.53915 31877 ft 448 kts 218°
2026-04-27 10:08 15.96295 111.50121 31879 ft 449 kts 218°
2026-04-27 10:09 15.91231 111.46326 31877 ft 449 kts 218°
2026-04-27 10:09 15.86154 111.42535 31878 ft 449 kts 218°
2026-04-27 10:10 15.81083 111.38744 31879 ft 449 kts 218°
2026-04-27 10:10 15.76010 111.34954 31873 ft 449 kts 218°
2026-04-27 10:11 15.70938 111.31167 31873 ft 449 kts 218°
2026-04-27 10:11 15.65863 111.27374 31871 ft 450 kts 218°
2026-04-27 10:12 15.60783 111.23582 31875 ft 450 kts 218°
2026-04-27 10:12 15.55697 111.19789 31878 ft 450 kts 218°
2026-04-27 10:13 15.50609 111.15994 31877 ft 450 kts 218°
2026-04-27 10:13 15.45517 111.12205 31877 ft 450 kts 218°
2026-04-27 10:14 15.40429 111.08423 31882 ft 450 kts 217°
2026-04-27 10:14 15.35341 111.04634 31882 ft 450 kts 218°
2026-04-27 10:15 15.30267 111.00810 31879 ft 451 kts 218°
2026-04-27 10:15 15.25220 110.96956 31878 ft 451 kts 218°
2026-04-27 10:16 15.20176 110.93103 31875 ft 451 kts 218°
2026-04-27 10:16 15.15115 110.89254 31875 ft 451 kts 218°
2026-04-27 10:17 15.10040 110.85409 31874 ft 452 kts 218°
2026-04-27 10:17 15.04977 110.81571 31877 ft 452 kts 218°
2026-04-27 10:18 14.99895 110.77726 31876 ft 452 kts 218°
2026-04-27 10:18 14.94818 110.73883 31876 ft 452 kts 218°
2026-04-27 10:19 14.89744 110.70037 31875 ft 452 kts 218°
2026-04-27 10:19 14.84664 110.66197 31877 ft 452 kts 218°
2026-04-27 10:20 14.79589 110.62361 31876 ft 452 kts 218°
2026-04-27 10:20 14.74507 110.58521 31876 ft 452 kts 218°
2026-04-27 10:21 14.69426 110.54687 31876 ft 453 kts 218°
2026-04-27 10:21 14.64342 110.50850 31876 ft 453 kts 218°
2026-04-27 10:22 14.59253 110.47012 31876 ft 453 kts 218°
2026-04-27 10:22 14.54172 110.43176 31877 ft 453 kts 218°
2026-04-27 10:23 14.49079 110.39340 31877 ft 453 kts 218°
2026-04-27 10:23 14.43981 110.35512 31875 ft 453 kts 218°
2026-04-27 10:24 14.38883 110.31687 31875 ft 453 kts 218°
2026-04-27 10:24 14.33784 110.27854 31874 ft 454 kts 218°
2026-04-27 10:25 14.28683 110.24016 31871 ft 454 kts 218°
2026-04-27 10:25 14.23584 110.20181 31873 ft 454 kts 218°
2026-04-27 10:26 14.18478 110.16346 31872 ft 454 kts 218°
2026-04-27 10:26 14.13367 110.12514 31871 ft 454 kts 218°
2026-04-27 10:27 14.08256 110.08693 31867 ft 454 kts 218°
2026-04-27 10:27 14.03141 110.04858 31868 ft 455 kts 218°
2026-04-27 10:28 13.98031 110.01021 31871 ft 455 kts 218°
2026-04-27 10:28 13.92812 109.97322 31869 ft 456 kts 214°
2026-04-27 10:29 13.87404 109.93907 31868 ft 456 kts 212°
2026-04-27 10:29 13.81961 109.90536 31864 ft 456 kts 213°
2026-04-27 10:30 13.76557 109.87098 31867 ft 456 kts 214°
2026-04-27 10:30 13.71182 109.83617 31869 ft 456 kts 214°
2026-04-27 10:31 13.65809 109.80142 31866 ft 457 kts 213°
2026-04-27 10:31 13.60416 109.76686 31866 ft 457 kts 213°
2026-04-27 10:32 13.55020 109.73237 31868 ft 457 kts 213°
2026-04-27 10:32 13.49630 109.69780 31870 ft 457 kts 213°
2026-04-27 10:33 13.44234 109.66318 31869 ft 457 kts 213°
2026-04-27 10:33 13.38839 109.62856 31867 ft 457 kts 213°
2026-04-27 10:34 13.33440 109.59403 31868 ft 457 kts 213°
2026-04-27 10:34 13.28035 109.55953 31870 ft 457 kts 213°
2026-04-27 10:35 13.22634 109.52505 31868 ft 457 kts 213°
2026-04-27 10:35 13.17230 109.49049 31870 ft 457 kts 213°
2026-04-27 10:36 13.11829 109.45593 31868 ft 458 kts 213°
2026-04-27 10:36 13.06431 109.42140 31872 ft 458 kts 213°
2026-04-27 10:37 13.01021 109.38683 31873 ft 458 kts 213°
2026-04-27 10:37 12.95618 109.35236 31877 ft 458 kts 213°
2026-04-27 10:38 12.90212 109.31786 31881 ft 458 kts 213°
2026-04-27 10:38 12.84799 109.28338 31885 ft 458 kts 213°
2026-04-27 10:39 12.79389 109.24892 31881 ft 458 kts 213°
2026-04-27 10:39 12.73978 109.21451 31885 ft 458 kts 213°
2026-04-27 10:40 12.68563 109.18007 31888 ft 458 kts 213°
2026-04-27 10:40 12.63144 109.14570 31891 ft 458 kts 213°
2026-04-27 10:41 12.57725 109.11128 31893 ft 459 kts 213°
2026-04-27 10:41 12.52301 109.07684 31896 ft 459 kts 213°
2026-04-27 10:42 12.46878 109.04239 31897 ft 459 kts 213°
2026-04-27 10:42 12.41455 109.00793 31900 ft 459 kts 213°
2026-04-27 10:43 12.36937 108.97933 31903 ft 459 kts 213°
2026-04-27 10:43 12.30575 108.93917 31912 ft 460 kts 213°
2026-04-27 10:44 12.26060 108.91064 31913 ft 460 kts 213°
2026-04-27 10:44 12.20617 108.87608 31918 ft 460 kts 213°
2026-04-27 10:45 12.15178 108.84163 31924 ft 460 kts 213°
2026-04-27 10:45 12.09725 108.80721 31929 ft 461 kts 213°
2026-04-27 10:46 12.04271 108.77279 31934 ft 461 kts 213°
2026-04-27 10:46 11.98822 108.73835 31927 ft 461 kts 213°
2026-04-27 10:47 11.93362 108.70384 31932 ft 461 kts 213°
2026-04-27 10:47 11.87901 108.66935 31934 ft 462 kts 213°
2026-04-27 10:48 11.82433 108.63487 31930 ft 462 kts 213°
2026-04-27 10:48 11.76964 108.60038 31929 ft 462 kts 213°
2026-04-27 10:49 11.71491 108.56590 31924 ft 463 kts 213°
2026-04-27 10:49 11.66012 108.53139 31918 ft 463 kts 213°
2026-04-27 10:50 11.60528 108.49686 31909 ft 463 kts 213°
2026-04-27 10:50 11.55040 108.46242 31909 ft 464 kts 213°
2026-04-27 10:51 11.49508 108.42767 31901 ft 464 kts 213°
2026-04-27 10:51 11.44050 108.39327 31897 ft 465 kts 213°
2026-04-27 10:52 11.38541 108.35869 31892 ft 465 kts 213°
2026-04-27 10:52 11.33028 108.32408 31890 ft 466 kts 213°
2026-04-27 10:53 11.24750 108.27220 31880 ft 466 kts 213°
2026-04-27 10:54 11.19221 108.23753 31874 ft 466 kts 213°
2026-04-27 10:54 11.13657 108.20264 31870 ft 467 kts 213°
2026-04-27 10:55 11.08125 108.16797 31863 ft 467 kts 213°
2026-04-27 10:55 11.02585 108.13331 31859 ft 468 kts 213°
2026-04-27 10:56 10.97040 108.09863 31860 ft 468 kts 213°
2026-04-27 10:56 10.91499 108.06380 31856 ft 468 kts 213°
2026-04-27 10:57 10.86031 108.02781 31854 ft 468 kts 214°
2026-04-27 10:57 10.80601 107.99112 31854 ft 469 kts 215°
2026-04-27 10:58 10.75153 107.95455 31852 ft 469 kts 214°
2026-04-27 10:58 10.69681 107.91826 31846 ft 470 kts 214°
2026-04-27 10:59 10.64204 107.88204 31851 ft 470 kts 214°
2026-04-27 10:59 10.58721 107.84572 31849 ft 470 kts 214°
2026-04-27 11:00 10.50498 107.79123 31847 ft 471 kts 214°
2026-04-27 11:00 10.45008 107.75486 31854 ft 471 kts 214°
2026-04-27 11:01 10.39513 107.71859 31846 ft 471 kts 214°
2026-04-27 11:01 10.34042 107.68258 31848 ft 472 kts 213°
2026-04-27 11:02 10.28534 107.64629 31846 ft 472 kts 213°
2026-04-27 11:02 10.22983 107.60982 31850 ft 472 kts 213°
2026-04-27 11:03 10.17509 107.57387 31853 ft 472 kts 213°
2026-04-27 11:03 10.11970 107.53733 31863 ft 472 kts 213°
2026-04-27 11:04 10.06464 107.50088 31855 ft 472 kts 213°
2026-04-27 11:04 10.00995 107.46475 31863 ft 472 kts 213°
2026-04-27 11:05 9.95489 107.42851 31868 ft 472 kts 213°
2026-04-27 11:05 9.89978 107.39222 31869 ft 472 kts 213°
2026-04-27 11:06 9.84469 107.35592 31867 ft 472 kts 213°
2026-04-27 11:06 9.78935 107.31945 31862 ft 472 kts 213°
2026-04-27 11:07 9.73427 107.28318 31858 ft 472 kts 212°
2026-04-27 11:07 9.67924 107.24693 31858 ft 472 kts 212°
2026-04-27 11:08 9.62413 107.21074 31871 ft 472 kts 212°
2026-04-27 11:08 9.56902 107.17457 31857 ft 472 kts 212°
2026-04-27 11:09 9.51388 107.13833 31866 ft 472 kts 212°
2026-04-27 11:09 9.45884 107.10211 31868 ft 472 kts 212°
2026-04-27 11:10 9.40376 107.06591 31871 ft 472 kts 212°
2026-04-27 11:10 9.34872 107.02981 31872 ft 471 kts 212°
2026-04-27 11:11 9.29365 106.99375 31871 ft 471 kts 212°
2026-04-27 11:11 9.23860 106.95762 31862 ft 471 kts 212°
2026-04-27 11:12 9.18359 106.92148 31863 ft 471 kts 212°
2026-04-27 11:12 9.12858 106.88543 31858 ft 471 kts 212°
2026-04-27 11:13 9.07360 106.84936 31860 ft 471 kts 212°
2026-04-27 11:13 9.01858 106.81333 31863 ft 471 kts 212°
2026-04-27 11:14 8.96355 106.77738 31857 ft 471 kts 212°
2026-04-27 11:14 8.90850 106.74142 31864 ft 471 kts 212°
2026-04-27 11:15 8.85354 106.70547 31857 ft 471 kts 212°
2026-04-27 11:15 8.79857 106.66955 31865 ft 471 kts 212°
2026-04-27 11:16 8.74536 106.63107 31855 ft 471 kts 223°
2026-04-27 11:16 8.70506 106.57899 31856 ft 472 kts 239°
2026-04-27 11:17 8.67170 106.52175 31851 ft 473 kts 239°
2026-04-27 11:17 8.63818 106.46449 31856 ft 473 kts 239°
2026-04-27 11:18 8.60468 106.40720 31861 ft 474 kts 239°
2026-04-27 11:18 8.57115 106.34989 31857 ft 474 kts 239°
2026-04-27 11:19 8.53759 106.29259 31866 ft 474 kts 239°
2026-04-27 11:19 8.50412 106.23529 31860 ft 474 kts 239°
2026-04-27 11:20 8.47062 106.17798 31866 ft 474 kts 239°
2026-04-27 11:20 8.43710 106.12074 31861 ft 474 kts 239°
2026-04-27 11:21 8.40350 106.06347 31860 ft 474 kts 239°
2026-04-27 11:21 8.37561 106.01598 31859 ft 474 kts 239°
2026-04-27 11:22 8.33638 105.94906 31857 ft 474 kts 239°
2026-04-27 11:22 8.30845 105.90150 31858 ft 474 kts 239°
2026-04-27 11:23 8.27461 105.84395 31859 ft 474 kts 239°
2026-04-27 11:23 8.24103 105.78671 31857 ft 474 kts 239°
2026-04-27 11:24 8.20742 105.72950 31859 ft 474 kts 239°
2026-04-27 11:24 8.17402 105.67261 31851 ft 474 kts 239°
2026-04-27 11:25 8.14013 105.61508 31861 ft 474 kts 239°
2026-04-27 11:25 8.10646 105.55788 31862 ft 474 kts 239°
2026-04-27 11:26 8.07284 105.50069 31860 ft 474 kts 239°
2026-04-27 11:26 8.03923 105.44356 31859 ft 474 kts 239°
2026-04-27 11:27 8.00563 105.38643 31861 ft 474 kts 239°
2026-04-27 11:27 7.97203 105.32924 31855 ft 474 kts 239°
2026-04-27 11:28 7.93844 105.27212 31856 ft 474 kts 239°
2026-04-27 11:28 7.90476 105.21503 31854 ft 474 kts 238°
2026-04-27 11:29 7.87108 105.15791 31866 ft 473 kts 239°
2026-04-27 11:29 7.83743 105.10081 31865 ft 473 kts 238°
2026-04-27 11:30 7.80380 105.04372 31863 ft 473 kts 239°
2026-04-27 11:30 7.77022 104.98665 31861 ft 473 kts 239°
2026-04-27 11:31 7.73661 104.92960 31851 ft 473 kts 239°
2026-04-27 11:31 7.70293 104.87255 31855 ft 473 kts 239°
2026-04-27 11:32 7.66926 104.81555 31854 ft 473 kts 238°
2026-04-27 11:32 7.63550 104.75854 31860 ft 473 kts 238°
2026-04-27 11:33 7.60186 104.70160 31863 ft 473 kts 239°
2026-04-27 11:33 7.56822 104.64453 31860 ft 473 kts 239°
2026-04-27 11:34 7.53461 104.58756 31862 ft 473 kts 238°
2026-04-27 11:34 7.50098 104.53062 31855 ft 473 kts 238°
2026-04-27 11:35 7.46734 104.47374 31857 ft 473 kts 238°
2026-04-27 11:35 7.43365 104.41680 31853 ft 473 kts 238°
2026-04-27 11:36 7.39995 104.35990 31855 ft 473 kts 238°
2026-04-27 11:36 7.36628 104.30303 31859 ft 473 kts 238°
2026-04-27 11:37 7.33256 104.24623 31859 ft 473 kts 238°
2026-04-27 11:37 7.29882 104.18941 31857 ft 473 kts 238°
2026-04-27 11:38 7.26514 104.13259 31855 ft 473 kts 238°
2026-04-27 11:38 7.23142 104.07580 31854 ft 472 kts 238°
2026-04-27 11:39 7.19747 104.01912 31856 ft 472 kts 238°
2026-04-27 11:39 7.16347 103.96248 31856 ft 472 kts 238°
2026-04-27 11:40 7.12946 103.90592 31854 ft 472 kts 238°
2026-04-27 11:40 7.09544 103.84931 31862 ft 472 kts 238°
2026-04-27 11:41 7.06148 103.79270 31857 ft 472 kts 238°
2026-04-27 11:41 7.02754 103.73617 31856 ft 472 kts 238°
2026-04-27 11:42 6.99352 103.67960 31857 ft 472 kts 238°
2026-04-27 11:42 6.95955 103.62310 31854 ft 472 kts 238°
2026-04-27 11:43 6.92559 103.56653 31860 ft 472 kts 238°
2026-04-27 11:43 6.89200 103.50983 31853 ft 472 kts 239°
2026-04-27 11:44 6.85853 103.45307 31860 ft 472 kts 238°
2026-04-27 11:44 6.82487 103.39643 31867 ft 472 kts 238°
2026-04-27 11:45 6.79680 103.34935 31865 ft 471 kts 238°
2026-04-27 11:45 6.75748 103.28321 31864 ft 471 kts 238°
2026-04-27 11:46 6.72389 103.22658 31863 ft 471 kts 238°
2026-04-27 11:46 6.69023 103.17004 31858 ft 471 kts 238°
2026-04-27 11:47 6.65655 103.11350 31855 ft 471 kts 238°
2026-04-27 11:47 6.62293 103.05696 31858 ft 471 kts 238°
2026-04-27 11:48 6.58932 103.00046 31857 ft 471 kts 238°
2026-04-27 11:48 6.55568 102.94390 31864 ft 471 kts 238°
2026-04-27 11:49 6.52204 102.88740 31865 ft 471 kts 238°
2026-04-27 11:49 6.48839 102.83087 31868 ft 471 kts 238°
2026-04-27 11:50 6.45430 102.77467 31861 ft 471 kts 237°
2026-04-27 11:50 6.41907 102.71924 31863 ft 471 kts 237°
2026-04-27 11:51 6.38368 102.66388 31863 ft 471 kts 237°
2026-04-27 11:52 6.33118 102.58054 31861 ft 471 kts 237°
2026-04-27 11:52 6.29624 102.52487 31859 ft 470 kts 237°
2026-04-27 11:53 6.26121 102.46932 31855 ft 470 kts 237°
2026-04-27 11:53 6.22623 102.41379 31852 ft 470 kts 237°
2026-04-27 11:54 6.19120 102.35825 31851 ft 470 kts 237°
2026-04-27 11:54 6.14984 102.30783 31854 ft 468 kts 220°
2026-04-27 11:55 6.09652 102.27074 31848 ft 466 kts 212°
2026-04-27 11:55 6.04203 102.23548 31851 ft 467 kts 212°
2026-04-27 11:56 5.98753 102.19993 31843 ft 467 kts 212°
2026-04-27 11:56 5.93311 102.16446 31843 ft 467 kts 212°
2026-04-27 11:57 5.87855 102.12903 31852 ft 467 kts 212°
2026-04-27 11:57 5.85146 102.11147 31641 ft 461 kts 212°
2026-04-27 11:57 5.82464 102.09407 31187 ft 457 kts 212°
2026-04-27 11:57 5.79802 102.07679 30715 ft 454 kts 212°
2026-04-27 11:58 5.77158 102.05962 30229 ft 451 kts 212°
2026-04-27 11:58 5.74531 102.04256 29756 ft 449 kts 212°
2026-04-27 11:58 5.71923 102.02560 29236 ft 445 kts 212°
2026-04-27 11:58 5.69331 102.00876 28753 ft 442 kts 212°
2026-04-27 11:59 5.66760 101.99208 28269 ft 438 kts 212°
2026-04-27 11:59 5.64214 101.97545 27795 ft 435 kts 214°
2026-04-27 11:59 5.61915 101.95590 27331 ft 432 kts 226°
2026-04-27 11:59 5.60062 101.93234 26879 ft 429 kts 238°
2026-04-27 12:00 5.58719 101.90578 26427 ft 426 kts 249°
2026-04-27 12:00 5.57920 101.87725 25990 ft 423 kts 260°
2026-04-27 12:00 5.57400 101.84821 25561 ft 421 kts 260°
2026-04-27 12:00 5.56876 101.81943 25150 ft 419 kts 259°
2026-04-27 12:01 5.56352 101.79099 24758 ft 416 kts 259°
2026-04-27 12:01 5.55998 101.77192 24498 ft 415 kts 259°
2026-04-27 12:01 5.55289 101.73397 24020 ft 411 kts 259°
2026-04-27 12:01 5.54941 101.71534 23763 ft 410 kts 259°
2026-04-27 12:02 5.54418 101.68728 23377 ft 408 kts 259°
2026-04-27 12:02 5.53901 101.65937 22929 ft 405 kts 259°
2026-04-27 12:02 5.53389 101.63164 22485 ft 403 kts 259°
2026-04-27 12:02 5.52883 101.60409 22038 ft 400 kts 259°
2026-04-27 12:03 5.52380 101.57671 21605 ft 398 kts 259°
2026-04-27 12:03 5.51880 101.54948 21164 ft 395 kts 259°
2026-04-27 12:03 5.51383 101.52241 20736 ft 393 kts 259°
2026-04-27 12:03 5.50889 101.49554 20305 ft 390 kts 259°
2026-04-27 12:04 5.50395 101.46885 19868 ft 388 kts 259°
2026-04-27 12:04 5.49904 101.44236 19441 ft 386 kts 259°
2026-04-27 12:04 5.49415 101.41595 19034 ft 383 kts 259°
2026-04-27 12:04 5.48929 101.38977 18623 ft 381 kts 259°
2026-04-27 12:05 5.48444 101.36368 18221 ft 379 kts 259°
2026-04-27 12:05 5.47962 101.33781 17773 ft 376 kts 259°
2026-04-27 12:05 5.47484 101.31204 17316 ft 374 kts 259°
2026-04-27 12:05 5.47011 101.28648 16871 ft 371 kts 259°
2026-04-27 12:06 5.46541 101.26110 16432 ft 369 kts 259°
2026-04-27 12:06 5.46076 101.23586 15992 ft 366 kts 259°
2026-04-27 12:06 5.45615 101.21087 15569 ft 364 kts 259°
2026-04-27 12:06 5.45155 101.18600 15141 ft 361 kts 259°
2026-04-27 12:07 5.44696 101.16126 14723 ft 359 kts 259°
2026-04-27 12:07 5.44241 101.13668 14312 ft 357 kts 259°
2026-04-27 12:07 5.43790 101.11226 13917 ft 355 kts 259°
2026-04-27 12:07 5.43342 101.08794 13510 ft 353 kts 259°
2026-04-27 12:08 5.42897 101.06383 13087 ft 351 kts 259°
2026-04-27 12:08 5.42454 101.03984 12635 ft 349 kts 259°
2026-04-27 12:08 5.42009 101.01597 12214 ft 346 kts 259°
2026-04-27 12:08 5.41567 100.99233 11804 ft 344 kts 259°
2026-04-27 12:09 5.41127 100.96880 11400 ft 342 kts 259°
2026-04-27 12:09 5.40688 100.94539 10998 ft 340 kts 259°
2026-04-27 12:09 5.40258 100.92228 10727 ft 333 kts 259°
2026-04-27 12:09 5.39841 100.89981 10609 ft 322 kts 259°
2026-04-27 12:10 5.39438 100.87809 10452 ft 313 kts 259°
2026-04-27 12:10 5.39043 100.85672 10171 ft 310 kts 259°
2026-04-27 12:10 5.38653 100.83558 9866 ft 308 kts 259°
2026-04-27 12:10 5.38264 100.81446 9524 ft 307 kts 259°
2026-04-27 12:11 5.37877 100.79350 9189 ft 305 kts 259°
2026-04-27 12:11 5.37649 100.77249 8872 ft 302 kts 272°
2026-04-27 12:11 5.37935 100.75179 8555 ft 299 kts 284°
2026-04-27 12:11 5.38411 100.73157 8093 ft 296 kts 284°
2026-04-27 12:12 5.38882 100.71150 7605 ft 294 kts 284°
2026-04-27 12:12 5.39348 100.69162 7122 ft 292 kts 284°
2026-04-27 12:12 5.39810 100.67184 6646 ft 289 kts 284°
2026-04-27 12:12 5.40267 100.65225 6166 ft 287 kts 284°
2026-04-27 12:13 5.40718 100.63281 5680 ft 285 kts 285°
2026-04-27 12:13 5.41165 100.61352 5342 ft 283 kts 284°
2026-04-27 12:13 5.41609 100.59440 5049 ft 281 kts 285°
2026-04-27 12:13 5.42052 100.57539 4742 ft 279 kts 284°
2026-04-27 12:14 5.42496 100.55627 4436 ft 276 kts 285°
2026-04-27 12:14 5.43007 100.53811 4116 ft 273 kts 293°
2026-04-27 12:14 5.43714 100.52051 3812 ft 271 kts 293°
2026-04-27 12:14 5.44417 100.50305 3485 ft 269 kts 293°
2026-04-27 12:15 5.45117 100.48569 3169 ft 267 kts 292°
2026-04-27 12:15 5.45803 100.46865 3013 ft 259 kts 292°
2026-04-27 12:15 5.46387 100.45176 2886 ft 248 kts 279°
2026-04-27 12:15 5.46303 100.43522 2782 ft 236 kts 253°
2026-04-27 12:16 5.45551 100.42123 2662 ft 223 kts 229°
2026-04-27 12:16 5.44453 100.41090 2567 ft 211 kts 223°
2026-04-27 12:16 5.43376 100.40097 2547 ft 205 kts 223°
2026-04-27 12:16 5.42349 100.39146 2535 ft 199 kts 223°
2026-04-27 12:17 5.41332 100.38225 2512 ft 196 kts 222°
2026-04-27 12:17 5.40337 100.37325 2343 ft 188 kts 223°
2026-04-27 12:17 5.39394 100.36472 2132 ft 178 kts 223°
2026-04-27 12:17 5.38489 100.35649 1956 ft 174 kts 223°
2026-04-27 12:18 5.37597 100.34838 1722 ft 172 kts 222°
2026-04-27 12:18 5.36736 100.34054 1516 ft 160 kts 222°
2026-04-27 12:18 5.35937 100.33327 1313 ft 156 kts 222°
2026-04-27 12:18 5.35137 100.32604 1119 ft 154 kts 222°
2026-04-27 12:19 5.34338 100.31883 952 ft 154 kts 222°
2026-04-27 12:19 5.33596 100.31209 774 ft 153 kts 222°
2026-04-27 12:19 5.32810 100.30488 576 ft 152 kts 222°
2026-04-27 12:19 5.32032 100.29778 378 ft 151 kts 221°
2026-04-27 12:20 5.31250 100.29071 164 ft 150 kts 221°
2026-04-27 12:20 5.30473 100.28381 27 ft 142 kts 221°
2026-04-27 12:20 5.29860 100.27816 30 ft 94 kts 223°
2026-04-27 12:20 5.29497 100.27487 23 ft 53 kts 222°
2026-04-27 12:21 5.29262 100.27274 24 ft 42 kts 222°
2026-04-27 12:21 5.29096 100.27123 26 ft 20 kts 222°
2026-04-27 12:21 5.29069 100.27047 26 ft 10 kts 300°
2026-04-27 12:21 5.29119 100.26988 24 ft 12 kts 312°
2026-04-27 12:22 5.29175 100.26923 23 ft 13 kts 311°
2026-04-27 12:22 5.29233 100.26858 23 ft 12 kts 312°
2026-04-27 12:22 5.29257 100.26794 23 ft 10 kts 246°
2026-04-27 12:22 5.29206 100.26743 23 ft 11 kts 221°
2026-04-27 12:23 5.29146 100.26691 23 ft 11 kts 221°
2026-04-27 12:23 5.29093 100.26641 23 ft 7 kts 240°
2026-04-27 12:23 5.29112 100.26593 23 ft 8 kts 309°
2026-04-27 12:23 5.29128 100.26575 23 ft 2 kts 311°
2026-04-27 12:24 5.29134 100.26569 23 ft 1 kts 311°
2026-04-27 12:24 5.29134 100.26568 23 ft 0 kts 311°